Location: Beuvrequen
(50.8014°N, 1.6652°E)
Time: 03:38:51
(UTC+00:00)

Cosmos 1726 - Pass Details

Date: 16 October 2021
Orbit: 479 x 493 km, 82.5° (Epoch: 28 November)

Event Time Altitude Azimuth Distance (km) Brightness Sun altitude
Rises 17:54:05 0° 204° (SSW) 2,528 6.1 -9.5°
Reaches altitude 10° 17:56:14 10° 211° (SSW) 1,654 5.2 -9.8°
Maximum altitude 17:59:42 44° 285° (WNW) 682 3.4 -10.4°
Drops below altitude 10° 18:03:13 10° 359° (N) 1,671 4.8 -10.9°
Sets 18:05:24 0° 6° (N) 2,558 5.7 -11.3°
